WESTFORD NEEDLES, 2380

Orbit data source: Space-Track

WESTFORD NEEDLES, 2380 is space debris in LEO originally from a launch on Thu, 09 May 1963 UTC launched from the Air Force Western Test Range (AFWTR). Debris objects in space refer to the collection of defunct objects orbiting the Earth. Examples of debris include non-operational satellites, rocket bodies, and fragments generated from explosions, collisions, or faulty payload assembly.

Loading next visibility...
Identifier
2380, 1963-014AA
Orbit
LEO
Country
Flag of USUS
Related business
Manufacturer
Unknown
Mission
Spacecraft
Bus & Motor
Unknown
Mass
Unknown
Launch date (UTC)
1963-05-09 (63 years ago)
Launch vehicle
Unknown
Launch site
Air Force Western Test Range (AFWTR)
Object type
Payload
Rocket body
Debris
Shape & HBR
Unknown shape, 0.2 m
Radar Cross Section
Medium (>0.1 m² and <1 m²)

Expand to show TLE details & history
Last TLE update: 4 days ago

TLE from 4 days ago
0 WESTFORD NEEDLES
1 02380U 63014AA  26098.36193327  .00000168  00000-0  64367-1 0  9998
2 02380  87.1961  84.7976 0561518 234.8152 119.8874  8.68352375385011
Epoch: 2026-04-08T08:41Z
TLE epoch observation values (Epoch: 2026-04-08T08:41:11.034Z)
Latitude
-0.00005°
Longitude
117.87623°
Altitude
3,925.121 km
Speed
6.126 km/s
True Right ascension
05h 39m 11s
True Declination
0° 00' 00"
Sunlit
Object was in daylight at epoch
Visualization orbit readout
Latitude
Unknown
Longitude
Unknown
Altitude
Unknown
Speed
Unknown
Apparent Right ascension
Unknown
Apparent Declination
Unknown
Sunlit
N/A
Visualization observer readout
Local Sidereal Time
20:31:39
Azimuth
Unknown
Elevation
Unknown
Doppler factor
Unknown
Orbital elements
Apogee altitude
4,179.556 km
Perigee altitude
3,056.927 km
Semi-major axis
9,996.378 km
Eccentricity
0.05615
Inclination
87.1961°
RAAN
84.7976°
Arg. of periapsis
234.8152°
True anomaly
125.26951°
Mean anomaly
119.8874°
Eccentric anomaly
122.59785°
Mean motion
2.1716 °/min
Orbital period
165.78 mins
BSTAR
0.064367
Loading maneuver chart data...
Computing Atmospheric mass density...

Documentation

Showing up to 5 results
|